sat.trackr.live / text

‹ back to catalog

STARLINK-34846

NORAD 66972 · 2025-288P

PAYLOAD ACTIVE UNKNOWN

§ Identity

Operator
Country
US
Launch date
2025-12-08
Launch site
AFETR
Launch vehicle
Mass (kg)
RCS (m²)

Purposes: comms

External: N2YO · Heavens-Above · Gunter

§ Orbital elements

Epoch: 2026-05-25T03:43:06.453984Z

Period
94.27 min
Inclination
42.9993°
Eccentricity
0.0000404
Mean motion
15.27589081 rev/d
Perigee alt
482.7 km
Apogee alt
483.3 km
Semi-major
6,861.2 km
B*
5.1222e-4
RAAN
311.4587°
Arg perigee
297.9034°
Mean anomaly
62.1777°
Rev number
2,698

§ Raw data

STARLINK-348461 66972U 25288P   26145.15493581  .00013864  00000+0  51222-3 0  99952 66972  42.9993 311.4587 0000404 297.9034  62.1777 15.27589081 26980

JSON: /api/v1/satellites/66972 · /tle

For live sub-satellite position, see the globe view (requires WebGL).

§ Visibility from observer

Set your observer location to see the next 7 days of passes ≥ 10°. The values pass through the URL so the page stays shareable.

No JS? Fill the form by hand. The geolocation button needs JavaScript.